Regional Weather Roundup
Issued by NWS

Home | Current Version | Previous Version | Graphics & Text | Print | Product List | Glossary On
Versions: 1 2 3 4 5 6 7 8 9 10 11 12 13 14 15 16 17 18 19 20 21 22 23 24 25 26 27 28 29 30 31 32 33 34 35 36 37 38 39 40 41 42 43 44 45 46 47 48 49 50
000
ASUS43 KFSD 011210
RWRSD

WEATHER ROUNDUP FOR SOUTH DAKOTA
NATIONAL WEATHER SERVICE SIOUX FALLS SD
700 AM CDT SAT AUG 01 2015

NOTE: "FAIR" INDICATES FEW OR NO CLOUDS BELOW 12,000 FEET WITH NO
SIGNIFICANT WEATHER AND/OR OBSTRUCTIONS TO VISIBILITY.


SDZ001>005-009-010-012>017-011300-
NORTHWEST AND NORTH CENTRAL SOUTH DAKOTA

CITY           SKY/WX    TMP DP  RH WIND       PRES   REMARKS
BUFFALO          N/A     64  50  60 W5        29.93F
FAITH            N/A     67  56  67 S14       29.95S
MOBRIDGE       CLEAR     63  58  83 E9        29.93S
$$

SDZ012>016-024>037-041>051-057-063-072>074-011300-
SOUTHWEST AND SOUTH CENTRAL SOUTH DAKOTA

CITY           SKY/WX    TMP DP  RH WIND       PRES   REMARKS
RAPID CTY ARPT PTCLDY    62  56  80 CALM      30.00F
PIERRE         PTCLDY    66  60  81 S5        29.94F
CUSTER         CLEAR     59  46  62 CALM      30.17F
ELLSWORTH AFB  PTCLDY    63  57  79 S7        30.00F
PHILIP         MOCLDY    71  64  78 S15       29.98R
PINE RIDGE     PTCLDY    61  54  77 NE8       30.05R
WINNER         FAIR      81  49  32 W23G33    30.00R
$$

SDZ004>011-016>023-039-040-011300-
NORTHEAST SOUTH DAKOTA

CITY           SKY/WX    TMP DP  RH WIND       PRES   REMARKS
ABERDEEN       PTCLDY    60  56  86 CALM      29.96F
WATERTOWN      CLEAR     62  57  83 CALM      30.00S
BROOKINGS      CLEAR     63  57  82 CALM      30.03S
SISSETON         N/A     58  55  90 CALM      29.97S
$$

SDZ017-020-022-023-036>040-048>070-011300-
SOUTHEAST SOUTH DAKOTA

CITY           SKY/WX    TMP DP  RH WIND       PRES   REMARKS
SIOUX FALLS    PTCLDY    65  63  93 NW3       30.02R
HURON          CLEAR     62  61  96 SE6       29.97F
CHAMBERLAIN    MOCLDY    66  62  87 S5        29.97F
MITCHELL       CLEAR     61  61 100 SE5       30.00R
YANKTON        PTCLDY    64  63  94 SW9       30.01R
$$

ABBREVIATIONS USED IN REMARKS
   TC - TEMPERATURE IN CELSIUS
  WCI - WIND CHILL INDEX
   HX - HEAT INDEX
  VSB - VISIBILITY




USA.gov is the U.S. government's official web portal to all federal, state and local government web resources and services.